Weather History for KDLN - September, 2013

Change the Weather History Date:

Sunday, September 15, 2013

  Actual Average Record
Temperature  
Mean Temperature 65 °F 55 °F  
Max Temperature 77 °F 70 °F 92 °F (2000)
Min Temperature 52 °F 40 °F 24 °F (1982)
Degree Days  
Heating Degree Days 0    
Month to date heating degree days 23  
Since 1 July heating degree days 29  
Cooling Degree Days 0    
Month to date cooling degree days 19  
Year to date cooling degree days 247  
Growing Degree Days 14 (Base 50)    
Moisture  
Dew Point 48 °F    
Average Humidity 57    
Maximum Humidity 77    
Minimum Humidity 36    
Precipitation  
Precipitation 0.00 in 0.02 in 0.28 in (1966)
Month to date precipitation 0.30 0.45  
Year to date precipitation 7.24 8.75  
Snow  
Snow 0.00 in - - ()
Snow Depth 0.00 in    
Sea Level Pressure  
Sea Level Pressure 29.95 in    
Wind  
Wind Speed 7 mph (ENE)    
Max Wind Speed 16 mph    
Max Gust Speed 20 mph    
Visibility 10 miles    
Events      
T = Trace of Precipitation, MM = Missing Value Source: NWS Daily Summary

Daily Weather History Graph

Daily Weather History Graph

Search for Another Location

Airport or City:

Trip Planner

Search our weather history database for the weather conditions in past years. The results will help you decide how hot, cold, wet, or windy it might be!

Date:

Astronomy

Sep. 15, 2013 Rise Set
Actual Time 7:09 AM MDT 7:40 PM MDT
Civil Twilight 6:39 AM MDT 8:10 PM MDT
Nautical Twilight 6:04 AM MDT 8:45 PM MDT
Astronomical Twilight 5:28 AM MDT 9:21 PM MDT
Moon 5:18 PM MDT (9/15) 2:41 AM MDT (9/15)
Length of Visible Light 13h 30m
Length of Day
12h 31m
Waxing Gibbous, 82% of the Moon is Illuminated
Sep 15
Waxing Gibbous
Sep 19
Full
Sep 26
Last Quarter
Oct 4
New
Oct 11
First Quarter

Hourly Weather History & Observations

Time (MDT) Temp. Dew Point Humidity Pressure Visibility Wind Dir Wind Speed Gust Speed Precip Events Conditions
12:53 AM 60.1 °F 48.9 °F 67% 29.98 in 10.0 mi ENE 3.5 mph - N/A   Overcast
1:53 AM 60.1 °F 48.0 °F 64% 29.98 in 10.0 mi NE 10.4 mph - N/A   Overcast
2:53 AM 57.9 °F 48.0 °F 70% 29.98 in 10.0 mi ENE 9.2 mph - N/A   Overcast
3:53 AM 57.0 °F 48.0 °F 72% 29.98 in 10.0 mi East 5.8 mph - N/A   Mostly Cloudy
4:53 AM 55.9 °F 48.0 °F 75% 29.99 in 10.0 mi North 3.5 mph - N/A   Overcast
5:53 AM 55.0 °F 46.9 °F 74% 30.00 in 10.0 mi East 3.5 mph - N/A   Clear
6:53 AM 54.0 °F 46.9 °F 77% 30.01 in 10.0 mi ENE 5.8 mph - N/A   Mostly Cloudy
7:53 AM 54.0 °F 46.9 °F 77% 30.02 in 10.0 mi East 3.5 mph - N/A   Clear
8:53 AM 57.0 °F 48.0 °F 72% 30.03 in 10.0 mi NE 4.6 mph - N/A   Scattered Clouds
9:53 AM 61.0 °F 48.9 °F 64% 30.03 in 10.0 mi NE 6.9 mph - N/A   Overcast
10:53 AM 64.0 °F 48.9 °F 58% 30.02 in 10.0 mi NE 3.5 mph - N/A   Overcast
11:53 AM 66.0 °F 48.9 °F 54% 30.00 in 10.0 mi WNW 4.6 mph - N/A   Clear
12:53 PM 69.1 °F 50.0 °F 51% 29.97 in 10.0 mi North 4.6 mph - N/A   Clear
1:53 PM 73.0 °F 51.1 °F 46% 29.95 in 10.0 mi North 5.8 mph - N/A   Mostly Cloudy
2:53 PM 72.0 °F 48.9 °F 44% 29.93 in 10.0 mi NNE 4.6 mph - N/A   Mostly Cloudy
3:53 PM 73.9 °F 50.0 °F 43% 29.90 in 10.0 mi NNE 11.5 mph - N/A   Mostly Cloudy
4:53 PM 75.9 °F 48.9 °F 38% 29.88 in 10.0 mi North 10.4 mph - N/A   Mostly Cloudy
5:53 PM 75.9 °F 46.0 °F 35% 29.86 in 10.0 mi SE 8.1 mph - N/A   Mostly Cloudy
6:53 PM 73.9 °F 46.0 °F 37% 29.86 in 10.0 mi SSE 12.7 mph - N/A   Overcast
7:53 PM 70.0 °F 46.0 °F 42% 29.87 in 10.0 mi SE 12.7 mph - N/A   Mostly Cloudy
8:53 PM 69.1 °F 46.0 °F 44% 29.88 in 10.0 mi SE 10.4 mph - N/A   Mostly Cloudy
9:53 PM 64.9 °F 48.0 °F 54% 29.89 in 10.0 mi SW 6.9 mph - N/A   Overcast
10:53 PM 61.0 °F 48.9 °F 64% 29.89 in 10.0 mi SW 5.8 mph - N/A   Clear
11:53 PM 64.9 °F 46.9 °F 52% 29.86 in 10.0 mi WSW 3.5 mph - N/A   Clear